Time,TemperatureF,DewpointF,PressureIn,WindDirection,WindDirectionDegrees,WindSpeedMPH,WindSpeedGustMPH,Humidity,HourlyPrecipIn,Conditions,Clouds,dailyrainin,SoftwareType,DateUTC
2013-02-09 00:02:00,30.9,28.4,30.18,SSE,168,5.0,9.0,88,0.00,,,0.00,meteohub,2013-02-09 06:02:00,
2013-02-09 00:07:00,30.9,28.4,30.18,SE,144,10.0,12.0,88,0.00,,,0.00,meteohub,2013-02-09 06:07:00,
2013-02-09 00:12:00,30.9,28.6,30.17,SE,142,12.0,12.0,88,0.00,,,0.00,meteohub,2013-02-09 06:12:00,
2013-02-09 00:17:00,30.9,28.6,30.18,SSE,161,3.0,12.0,88,0.00,,,0.00,meteohub,2013-02-09 06:17:00,
2013-02-09 00:22:00,30.9,28.6,30.18,South,171,5.0,12.0,88,0.00,,,0.00,meteohub,2013-02-09 06:22:00,
2013-02-09 00:27:00,30.9,28.6,30.18,SSE,168,7.0,13.0,88,0.00,,,0.00,meteohub,2013-02-09 06:27:00,
2013-02-09 00:32:00,30.9,28.4,30.18,SSE,161,7.0,13.0,88,0.00,,,0.00,meteohub,2013-02-09 06:32:00,
2013-02-09 00:37:00,30.9,28.4,30.17,SE,142,7.0,15.0,88,0.00,,,0.00,meteohub,2013-02-09 06:37:00,
2013-02-09 00:42:00,30.9,28.8,30.17,SE,124,7.0,15.0,89,0.00,,,0.00,meteohub,2013-02-09 06:42:00,
2013-02-09 00:47:00,30.9,28.8,30.17,SSE,159,10.0,15.0,89,0.00,,,0.00,meteohub,2013-02-09 06:47:00,
2013-02-09 00:52:00,30.9,28.8,30.17,SSE,155,2.0,15.0,89,0.00,,,0.00,meteohub,2013-02-09 06:52:00,
2013-02-09 00:57:00,30.9,28.4,30.17,SE,140,9.0,14.0,89,0.00,,,0.00,meteohub,2013-02-09 06:57:00,
2013-02-09 01:02:00,30.9,28.4,30.16,South,171,7.0,14.0,89,0.00,,,0.00,meteohub,2013-02-09 07:02:00,
2013-02-09 01:07:00,30.9,28.4,30.16,SE,138,8.0,14.0,89,0.00,,,0.00,meteohub,2013-02-09 07:07:00,
2013-02-09 01:12:00,30.9,28.4,30.16,SE,133,8.0,14.0,90,0.00,,,0.00,meteohub,2013-02-09 07:12:00,
2013-02-09 01:17:00,30.9,28.4,30.16,SE,144,2.0,14.0,90,0.00,,,0.00,meteohub,2013-02-09 07:17:00,
2013-02-09 01:22:00,30.9,28.6,30.16,SE,137,4.0,11.0,90,0.00,,,0.00,meteohub,2013-02-09 07:22:00,
2013-02-09 01:27:00,30.9,28.6,30.16,South,169,3.0,12.0,90,0.00,,,0.00,meteohub,2013-02-09 07:27:00,
2013-02-09 01:37:00,30.9,29.3,30.16,South,170,7.0,12.0,91,0.00,,,0.00,meteohub,2013-02-09 07:37:00,
2013-02-09 01:42:00,30.9,29.3,30.16,SSE,157,4.0,12.0,91,0.00,,,0.00,meteohub,2013-02-09 07:42:00,
2013-02-09 01:47:00,32.0,29.5,30.17,SE,134,8.0,11.0,91,0.00,,,0.00,meteohub,2013-02-09 07:47:00,
2013-02-09 01:52:00,32.0,29.5,30.16,SSE,163,4.0,11.0,91,0.00,,,0.00,meteohub,2013-02-09 07:52:00,
2013-02-09 01:57:00,32.0,29.3,30.16,SSE,167,8.0,11.0,91,0.00,,,0.00,meteohub,2013-02-09 07:57:00,
2013-02-09 02:02:00,32.0,29.7,30.17,South,173,6.0,12.0,91,0.00,,,0.00,meteohub,2013-02-09 08:02:00,
2013-02-09 02:07:00,32.0,29.7,30.16,South,180,5.0,12.0,91,0.00,,,0.00,meteohub,2013-02-09 08:07:00,
2013-02-09 02:12:00,32.0,29.7,30.17,South,169,4.0,11.0,91,0.00,,,0.00,meteohub,2013-02-09 08:12:00,
2013-02-09 02:17:00,32.0,29.8,30.16,South,169,7.0,11.0,91,0.00,,,0.00,meteohub,2013-02-09 08:17:00,
2013-02-09 02:22:00,32.0,29.8,30.16,SE,142,4.0,12.0,91,0.00,,,0.00,meteohub,2013-02-09 08:22:00,
2013-02-09 02:27:00,32.0,29.8,30.16,SE,140,8.0,13.0,91,0.00,,,0.00,meteohub,2013-02-09 08:27:00,
2013-02-09 02:32:00,32.0,29.7,30.16,SSE,157,9.0,13.0,91,0.00,,,0.00,meteohub,2013-02-09 08:32:00,
2013-02-09 02:37:00,32.0,30.0,30.15,SE,133,10.0,13.0,90,0.00,,,0.00,meteohub,2013-02-09 08:37:00,
2013-02-09 02:42:00,32.0,29.7,30.15,South,171,6.0,13.0,90,0.00,,,0.00,meteohub,2013-02-09 08:42:00,
2013-02-09 02:47:00,32.0,29.8,30.15,ESE,118,9.0,13.0,90,0.00,,,0.00,meteohub,2013-02-09 08:47:00,
2013-02-09 02:52:00,32.0,29.8,30.15,SSE,157,9.0,14.0,91,0.00,,,0.00,meteohub,2013-02-09 08:52:00,
2013-02-09 02:57:00,32.0,29.8,30.14,SSE,164,5.0,14.0,91,0.00,,,0.00,meteohub,2013-02-09 08:57:00,
2013-02-09 03:02:00,32.0,29.8,30.14,SSE,166,6.0,14.0,90,0.00,,,0.00,meteohub,2013-02-09 09:02:00,
2013-02-09 03:07:00,32.0,29.8,30.14,SSE,158,6.0,17.0,90,0.00,,,0.00,meteohub,2013-02-09 09:07:00,
2013-02-09 03:12:00,32.0,29.8,30.14,South,177,11.0,17.0,90,0.00,,,0.00,meteohub,2013-02-09 09:12:00,
2013-02-09 03:17:00,32.0,29.8,30.13,SSE,161,5.0,17.0,90,0.00,,,0.00,meteohub,2013-02-09 09:17:00,
2013-02-09 03:22:00,32.0,29.8,30.13,SE,144,7.0,14.0,90,0.00,,,0.00,meteohub,2013-02-09 09:22:00,
2013-02-09 03:27:00,32.0,29.7,30.13,South,175,8.0,14.0,90,0.00,,,0.00,meteohub,2013-02-09 09:27:00,
2013-02-09 03:32:00,32.0,29.5,30.12,South,182,8.0,14.0,90,0.00,,,0.00,meteohub,2013-02-09 09:32:00,
2013-02-09 03:37:00,32.0,29.7,30.12,South,169,8.0,15.0,90,0.00,,,0.00,meteohub,2013-02-09 09:37:00,
2013-02-09 03:42:00,32.0,29.5,30.12,SSE,168,7.0,15.0,90,0.00,,,0.00,meteohub,2013-02-09 09:42:00,
2013-02-09 03:47:00,32.0,29.5,30.12,SSE,148,8.0,15.0,90,0.00,,,0.00,meteohub,2013-02-09 09:47:00,
2013-02-09 03:52:00,32.0,29.5,30.12,SSE,160,3.0,14.0,90,0.00,,,0.00,meteohub,2013-02-09 09:52:00,
2013-02-09 03:57:00,32.0,29.5,30.12,SE,140,11.0,14.0,91,0.00,,,0.00,meteohub,2013-02-09 09:57:00,
2013-02-09 04:02:00,32.0,29.5,30.12,South,170,7.0,13.0,90,0.00,,,0.00,meteohub,2013-02-09 10:02:00,
2013-02-09 04:07:00,32.0,29.5,30.12,South,179,8.0,13.0,91,0.00,,,0.00,meteohub,2013-02-09 10:07:00,
2013-02-09 04:12:00,32.0,29.5,30.11,SSE,168,4.0,14.0,91,0.00,,,0.00,meteohub,2013-02-09 10:12:00,
2013-02-09 04:17:00,32.0,29.5,30.11,SSE,158,9.0,14.0,91,0.00,,,0.00,meteohub,2013-02-09 10:17:00,
2013-02-09 04:22:00,32.0,29.5,30.11,ESE,115,7.0,14.0,90,0.00,,,0.00,meteohub,2013-02-09 10:22:00,
2013-02-09 04:27:00,32.0,29.5,30.11,ESE,117,4.0,12.0,90,0.00,,,0.00,meteohub,2013-02-09 10:27:00,
2013-02-09 04:32:00,32.0,29.5,30.10,SSE,155,8.0,15.0,90,0.00,,,0.00,meteohub,2013-02-09 10:32:00,
2013-02-09 04:37:00,32.0,29.5,30.10,South,169,6.0,15.0,90,0.00,,,0.00,meteohub,2013-02-09 10:37:00,
2013-02-09 04:42:00,32.0,29.5,30.10,SSE,159,5.0,15.0,90,0.00,,,0.00,meteohub,2013-02-09 10:42:00,
2013-02-09 04:47:00,32.0,29.3,30.10,SSE,152,4.0,13.0,90,0.00,,,0.00,meteohub,2013-02-09 10:47:00,
2013-02-09 04:52:00,32.0,29.1,30.10,SE,134,4.0,12.0,90,0.00,,,0.00,meteohub,2013-02-09 10:52:00,
2013-02-09 04:57:00,30.9,28.9,30.10,SE,138,2.0,12.0,90,0.00,,,0.00,meteohub,2013-02-09 10:57:00,
2013-02-09 05:02:00,30.9,28.6,30.10,ESE,121,2.0,11.0,90,0.00,,,0.00,meteohub,2013-02-09 11:02:00,
2013-02-09 05:07:00,30.9,28.9,30.10,SE,140,4.0,9.0,91,0.00,,,0.00,meteohub,2013-02-09 11:07:00,
2013-02-09 05:12:00,30.9,28.9,30.09,SE,141,5.0,8.0,91,0.00,,,0.00,meteohub,2013-02-09 11:12:00,
2013-02-09 05:17:00,30.9,28.9,30.09,SE,139,6.0,8.0,91,0.00,,,0.00,meteohub,2013-02-09 11:17:00,
2013-02-09 05:22:00,30.9,28.8,30.09,SSE,155,4.0,9.0,91,0.00,,,0.00,meteohub,2013-02-09 11:22:00,
2013-02-09 05:27:00,30.9,28.6,30.09,SSE,148,6.0,9.0,91,0.00,,,0.00,meteohub,2013-02-09 11:27:00,
2013-02-09 05:32:00,30.9,28.6,30.09,SSE,148,5.0,9.0,91,0.00,,,0.00,meteohub,2013-02-09 11:32:00,
2013-02-09 05:37:00,30.9,28.6,30.09,SSE,152,5.0,13.0,91,0.00,,,0.00,meteohub,2013-02-09 11:37:00,
2013-02-09 05:42:00,30.9,28.6,30.09,SE,139,5.0,13.0,91,0.00,,,0.00,meteohub,2013-02-09 11:42:00,
2013-02-09 05:47:00,30.9,28.6,30.08,South,171,6.0,13.0,91,0.00,,,0.00,meteohub,2013-02-09 11:47:00,
2013-02-09 05:52:00,30.9,28.6,30.08,South,171,8.0,11.0,91,0.00,,,0.00,meteohub,2013-02-09 11:52:00,
2013-02-09 05:57:00,30.9,28.6,30.08,SSE,151,4.0,12.0,91,0.00,,,0.00,meteohub,2013-02-09 11:57:00,
2013-02-09 06:02:00,30.0,28.4,30.08,SSE,159,7.0,12.0,90,0.00,,,0.00,meteohub,2013-02-09 12:02:00,
2013-02-09 06:07:00,30.0,28.4,30.07,SE,140,2.0,12.0,91,0.00,,,0.00,meteohub,2013-02-09 12:07:00,
2013-02-09 06:12:00,30.0,28.0,30.07,SSE,155,5.0,13.0,91,0.00,,,0.00,meteohub,2013-02-09 12:12:00,
2013-02-09 06:17:00,30.0,28.2,30.07,South,175,3.0,13.0,91,0.00,,,0.00,meteohub,2013-02-09 12:17:00,
2013-02-09 06:22:00,30.0,28.4,30.06,SE,134,6.0,11.0,91,0.00,,,0.00,meteohub,2013-02-09 12:22:00,
2013-02-09 06:27:00,30.0,28.4,30.06,SE,132,11.0,11.0,90,0.00,,,0.00,meteohub,2013-02-09 12:27:00,
2013-02-09 06:32:00,30.0,28.2,30.06,SSE,154,6.0,12.0,91,0.00,,,0.00,meteohub,2013-02-09 12:32:00,
2013-02-09 06:37:00,30.0,28.2,30.07,SE,124,7.0,12.0,91,0.00,,,0.00,meteohub,2013-02-09 12:37:00,
2013-02-09 06:42:00,30.0,28.2,30.07,SSE,153,2.0,12.0,91,0.00,,,0.00,meteohub,2013-02-09 12:42:00,
2013-02-09 06:47:00,30.0,28.2,30.07,SSE,159,0.0,12.0,91,0.00,,,0.00,meteohub,2013-02-09 12:47:00,
2013-02-09 06:52:00,30.0,28.2,30.07,SE,142,4.0,12.0,91,0.00,,,0.00,meteohub,2013-02-09 12:52:00,
2013-02-09 06:57:00,30.0,28.4,30.07,SE,139,4.0,10.0,91,0.00,,,0.00,meteohub,2013-02-09 12:57:00,
2013-02-09 07:02:00,30.0,27.9,30.07,SE,146,4.0,10.0,91,0.00,,,0.00,meteohub,2013-02-09 13:02:00,
2013-02-09 07:07:00,30.0,28.0,30.07,SSE,164,4.0,9.0,90,0.00,,,0.00,meteohub,2013-02-09 13:07:00,
2013-02-09 07:12:00,30.0,27.9,30.07,SSE,151,5.0,9.0,91,0.00,,,0.00,meteohub,2013-02-09 13:12:00,
2013-02-09 07:17:00,30.0,27.9,30.07,SSE,157,5.0,10.0,91,0.00,,,0.00,meteohub,2013-02-09 13:17:00,
2013-02-09 07:22:00,30.0,27.7,30.07,ESE,115,7.0,10.0,91,0.00,,,0.00,meteohub,2013-02-09 13:22:00,
2013-02-09 07:32:00,30.0,27.7,30.06,SE,144,6.0,9.0,91,0.00,,,0.00,meteohub,2013-02-09 13:32:00,
2013-02-09 07:37:00,30.0,28.0,30.06,SE,144,0.0,9.0,91,0.00,,,0.00,meteohub,2013-02-09 13:37:00,
2013-02-09 07:47:00,30.0,27.9,30.06,SSE,147,3.0,8.0,90,0.00,,,0.00,meteohub,2013-02-09 13:47:00,
2013-02-09 07:52:00,30.0,28.0,30.06,SSE,161,1.0,8.0,91,0.00,,,0.00,meteohub,2013-02-09 13:52:00,
2013-02-09 07:57:00,30.0,28.0,30.05,SSE,151,5.0,10.0,91,0.00,,,0.00,meteohub,2013-02-09 13:57:00,
2013-02-09 08:02:00,30.0,28.2,30.05,SSE,147,3.0,11.0,91,0.00,,,0.00,meteohub,2013-02-09 14:02:00,
2013-02-09 08:07:00,30.0,28.4,30.05,ESE,115,7.0,11.0,91,0.00,,,0.00,meteohub,2013-02-09 14:07:00,
2013-02-09 08:12:00,30.0,28.0,30.05,SSE,165,3.0,11.0,91,0.00,,,0.00,meteohub,2013-02-09 14:12:00,
2013-02-09 08:22:00,30.9,28.8,30.05,South,180,2.0,11.0,91,0.00,,,0.00,meteohub,2013-02-09 14:22:00,
2013-02-09 08:27:00,30.9,28.8,30.05,SSE,157,7.0,11.0,91,0.00,,,0.00,meteohub,2013-02-09 14:27:00,
2013-02-09 08:32:00,30.9,29.1,30.05,SSE,160,3.0,12.0,90,0.00,,,0.00,meteohub,2013-02-09 14:32:00,
2013-02-09 08:37:00,32.0,29.3,30.05,SSE,153,5.0,12.0,90,0.00,,,0.00,meteohub,2013-02-09 14:37:00,
2013-02-09 08:47:00,32.0,29.8,30.05,South,186,10.0,13.0,90,0.00,,,0.00,meteohub,2013-02-09 14:47:00,
2013-02-09 08:52:00,33.1,30.0,30.05,SSE,168,4.0,13.0,89,0.00,,,0.00,meteohub,2013-02-09 14:52:00,
2013-02-09 08:57:00,33.1,29.8,30.05,SSE,167,3.0,13.0,89,0.00,,,0.00,meteohub,2013-02-09 14:57:00,
2013-02-09 09:02:00,33.1,30.0,30.05,South,173,1.0,13.0,89,0.00,,,0.00,meteohub,2013-02-09 15:02:00,
2013-02-09 09:07:00,33.1,30.4,30.05,South,176,4.0,13.0,89,0.00,,,0.00,meteohub,2013-02-09 15:07:00,
2013-02-09 09:12:00,33.1,30.6,30.04,SSE,153,2.0,13.0,88,0.00,,,0.00,meteohub,2013-02-09 15:12:00,
2013-02-09 09:17:00,34.0,30.4,30.04,South,169,7.0,13.0,88,0.00,,,0.00,meteohub,2013-02-09 15:17:00,
2013-02-09 09:22:00,34.0,30.7,30.04,South,173,6.0,13.0,88,0.00,,,0.00,meteohub,2013-02-09 15:22:00,
2013-02-09 09:27:00,34.0,31.1,30.04,SSW,198,12.0,14.0,88,0.00,,,0.00,meteohub,2013-02-09 15:27:00,
2013-02-09 09:32:00,35.1,31.5,30.04,SSE,167,7.0,14.0,88,0.00,,,0.00,meteohub,2013-02-09 15:32:00,
2013-02-09 09:37:00,35.1,31.6,30.03,South,172,7.0,12.0,87,0.00,,,0.00,meteohub,2013-02-09 15:37:00,
2013-02-09 09:42:00,36.0,32.0,30.03,South,180,8.0,13.0,87,0.00,,,0.00,meteohub,2013-02-09 15:42:00,
2013-02-09 09:47:00,36.0,32.4,30.03,SSE,165,6.0,15.0,86,0.00,,,0.00,meteohub,2013-02-09 15:47:00,
2013-02-09 09:52:00,36.0,32.4,30.02,SSE,167,9.0,15.0,86,0.00,,,0.00,meteohub,2013-02-09 15:52:00,
2013-02-09 09:57:00,37.0,32.9,30.03,SSE,161,6.0,15.0,86,0.00,,,0.00,meteohub,2013-02-09 15:57:00,
2013-02-09 10:07:00,37.9,32.9,30.02,South,171,7.0,16.0,84,0.00,,,0.00,meteohub,2013-02-09 16:07:00,
2013-02-09 10:12:00,37.9,33.4,30.03,SSE,166,9.0,17.0,85,0.00,,,0.00,meteohub,2013-02-09 16:12:00,
2013-02-09 10:17:00,39.0,34.0,30.02,South,190,9.0,17.0,83,0.00,,,0.00,meteohub,2013-02-09 16:17:00,
2013-02-09 10:22:00,39.0,34.3,30.02,SSE,164,10.0,17.0,83,0.00,,,0.00,meteohub,2013-02-09 16:22:00,
2013-02-09 10:27:00,39.9,34.9,30.02,South,182,11.0,15.0,82,0.00,,,0.00,meteohub,2013-02-09 16:27:00,
2013-02-09 10:32:00,39.9,35.1,30.02,SSW,202,9.0,15.0,82,0.00,,,0.00,meteohub,2013-02-09 16:32:00,
2013-02-09 10:37:00,41.0,35.1,30.02,SSW,193,7.0,19.0,80,0.00,,,0.00,meteohub,2013-02-09 16:37:00,
2013-02-09 10:42:00,41.0,35.1,30.02,South,176,9.0,20.0,80,0.00,,,0.00,meteohub,2013-02-09 16:42:00,
2013-02-09 10:47:00,41.0,35.4,30.02,South,188,8.0,20.0,79,0.00,,,0.00,meteohub,2013-02-09 16:47:00,
2013-02-09 10:52:00,42.1,35.6,30.02,South,184,12.0,20.0,79,0.00,,,0.00,meteohub,2013-02-09 16:52:00,
2013-02-09 10:57:00,42.1,35.8,30.01,South,190,11.0,19.0,79,0.00,,,0.00,meteohub,2013-02-09 16:57:00,
2013-02-09 11:02:00,42.1,36.0,30.01,South,190,9.0,19.0,79,0.00,,,0.00,meteohub,2013-02-09 17:02:00,
2013-02-09 11:07:00,43.0,36.3,30.00,SSE,165,10.0,20.0,78,0.00,,,0.00,meteohub,2013-02-09 17:07:00,
2013-02-09 11:12:00,43.0,36.3,30.00,SSE,163,11.0,20.0,79,0.00,,,0.00,meteohub,2013-02-09 17:12:00,
2013-02-09 11:17:00,44.1,36.7,30.00,SSW,202,11.0,18.0,77,0.00,,,0.00,meteohub,2013-02-09 17:17:00,
2013-02-09 11:22:00,44.1,36.1,29.99,South,174,13.0,17.0,76,0.00,,,0.00,meteohub,2013-02-09 17:22:00,
2013-02-09 11:27:00,44.1,37.0,29.99,SE,140,7.0,17.0,76,0.00,,,0.00,meteohub,2013-02-09 17:27:00,
2013-02-09 11:32:00,44.1,37.0,29.99,SSW,197,7.0,17.0,76,0.00,,,0.00,meteohub,2013-02-09 17:32:00,
2013-02-09 11:37:00,44.1,37.2,29.99,SSE,159,12.0,19.0,77,0.00,,,0.00,meteohub,2013-02-09 17:37:00,
2013-02-09 11:42:00,45.0,36.9,29.99,South,176,6.0,19.0,76,0.00,,,0.00,meteohub,2013-02-09 17:42:00,
2013-02-09 11:47:00,45.0,37.6,29.99,SSW,192,11.0,19.0,75,0.00,,,0.00,meteohub,2013-02-09 17:47:00,
2013-02-09 11:52:00,45.0,37.8,29.98,SE,146,11.0,17.0,75,0.00,,,0.00,meteohub,2013-02-09 17:52:00,
2013-02-09 11:57:00,45.0,37.4,29.98,SSE,162,8.0,16.0,75,0.00,,,0.00,meteohub,2013-02-09 17:57:00,
2013-02-09 12:02:00,46.0,37.4,29.97,SSE,156,5.0,16.0,74,0.00,,,0.00,meteohub,2013-02-09 18:02:00,
2013-02-09 12:07:00,46.0,37.4,29.97,South,183,9.0,17.0,74,0.00,,,0.00,meteohub,2013-02-09 18:07:00,
2013-02-09 12:12:00,46.0,38.1,29.96,SW,215,8.0,17.0,74,0.00,,,0.00,meteohub,2013-02-09 18:12:00,
2013-02-09 12:17:00,46.9,38.3,29.96,South,188,9.0,17.0,75,0.00,,,0.00,meteohub,2013-02-09 18:17:00,
2013-02-09 12:22:00,46.9,38.3,29.96,SSE,161,9.0,14.0,72,0.00,,,0.00,meteohub,2013-02-09 18:22:00,
2013-02-09 12:27:00,46.9,38.5,29.95,SSW,205,7.0,20.0,73,0.00,,,0.00,meteohub,2013-02-09 18:27:00,
2013-02-09 12:32:00,46.9,38.7,29.95,South,184,9.0,20.0,71,0.00,,,0.00,meteohub,2013-02-09 18:32:00,
2013-02-09 12:37:00,48.0,39.0,29.94,South,176,9.0,20.0,71,0.00,,,0.00,meteohub,2013-02-09 18:37:00,
2013-02-09 12:42:00,48.0,38.8,29.94,SSW,202,7.0,17.0,71,0.00,,,0.00,meteohub,2013-02-09 18:42:00,
2013-02-09 12:47:00,48.9,39.7,29.94,SSE,165,7.0,17.0,70,0.00,,,0.00,meteohub,2013-02-09 18:47:00,
2013-02-09 12:57:00,48.9,39.4,29.92,South,170,7.0,16.0,69,0.00,,,0.00,meteohub,2013-02-09 18:57:00,
2013-02-09 13:02:00,48.9,38.8,29.92,SSE,153,9.0,17.0,68,0.00,,,0.00,meteohub,2013-02-09 19:02:00,
2013-02-09 13:07:00,50.0,39.2,29.91,SSE,159,11.0,19.0,68,0.00,,,0.00,meteohub,2013-02-09 19:07:00,
2013-02-09 13:12:00,50.0,39.0,29.91,SE,140,9.0,19.0,69,0.00,,,0.00,meteohub,2013-02-09 19:12:00,
2013-02-09 13:17:00,50.0,39.4,29.91,South,181,8.0,17.0,68,0.00,,,0.00,meteohub,2013-02-09 19:17:00,
2013-02-09 13:22:00,50.0,39.2,29.90,SSW,194,12.0,18.0,68,0.00,,,0.00,meteohub,2013-02-09 19:22:00,
2013-02-09 13:27:00,50.0,39.9,29.89,SSE,163,8.0,21.0,69,0.00,,,0.00,meteohub,2013-02-09 19:27:00,
2013-02-09 13:32:00,50.0,40.1,29.89,SSE,154,9.0,21.0,69,0.00,,,0.00,meteohub,2013-02-09 19:32:00,
2013-02-09 13:37:00,51.1,39.7,29.89,SSE,155,17.0,20.0,69,0.00,,,0.00,meteohub,2013-02-09 19:37:00,
2013-02-09 13:42:00,51.1,39.6,29.88,SE,136,9.0,19.0,68,0.00,,,0.00,meteohub,2013-02-09 19:42:00,
2013-02-09 13:47:00,51.1,39.7,29.88,South,186,9.0,18.0,66,0.00,,,0.00,meteohub,2013-02-09 19:47:00,
2013-02-09 13:52:00,51.1,39.6,29.88,SE,142,7.0,18.0,66,0.00,,,0.00,meteohub,2013-02-09 19:52:00,
2013-02-09 13:57:00,51.1,39.7,29.87,SSE,162,12.0,17.0,68,0.00,,,0.00,meteohub,2013-02-09 19:57:00,
2013-02-09 14:07:00,51.1,39.9,29.86,South,180,10.0,17.0,66,0.00,,,0.00,meteohub,2013-02-09 20:07:00,
2013-02-09 14:12:00,51.1,40.3,29.86,SE,142,9.0,16.0,65,0.00,,,0.00,meteohub,2013-02-09 20:12:00,
2013-02-09 14:17:00,52.0,40.3,29.86,South,188,7.0,17.0,67,0.00,,,0.00,meteohub,2013-02-09 20:17:00,
2013-02-09 14:22:00,52.0,40.5,29.86,SSE,158,13.0,17.0,65,0.00,,,0.00,meteohub,2013-02-09 20:22:00,
2013-02-09 14:27:00,52.0,40.1,29.86,SSE,150,7.0,20.0,64,0.00,,,0.00,meteohub,2013-02-09 20:27:00,
2013-02-09 14:32:00,52.0,40.1,29.85,SE,146,10.0,20.0,64,0.00,,,0.00,meteohub,2013-02-09 20:32:00,
2013-02-09 14:37:00,52.0,40.1,29.85,SE,129,7.0,18.0,66,0.00,,,0.00,meteohub,2013-02-09 20:37:00,
2013-02-09 14:42:00,52.0,40.3,29.85,SSE,150,8.0,16.0,64,0.00,,,0.00,meteohub,2013-02-09 20:42:00,
2013-02-09 14:47:00,52.0,40.3,29.84,ESE,106,12.0,16.0,65,0.00,,,0.00,meteohub,2013-02-09 20:47:00,
2013-02-09 14:52:00,53.1,41.2,29.85,SSE,168,7.0,18.0,66,0.00,,,0.00,meteohub,2013-02-09 20:52:00,
2013-02-09 14:57:00,53.1,41.2,29.84,South,177,9.0,18.0,65,0.00,,,0.00,meteohub,2013-02-09 20:57:00,
2013-02-09 15:02:00,53.1,40.6,29.84,SE,142,8.0,17.0,65,0.00,,,0.00,meteohub,2013-02-09 21:02:00,
2013-02-09 15:07:00,53.1,40.5,29.83,SSE,149,6.0,17.0,64,0.00,,,0.00,meteohub,2013-02-09 21:07:00,
2013-02-09 15:12:00,52.0,39.9,29.84,SSE,163,9.0,17.0,65,0.00,,,0.00,meteohub,2013-02-09 21:12:00,
2013-02-09 15:17:00,52.0,40.6,29.83,SSW,192,4.0,19.0,67,0.00,,,0.00,meteohub,2013-02-09 21:17:00,
2013-02-09 15:22:00,52.0,40.8,29.82,SSE,167,10.0,19.0,67,0.00,,,0.00,meteohub,2013-02-09 21:22:00,
2013-02-09 15:27:00,52.0,40.3,29.82,South,173,7.0,19.0,64,0.00,,,0.00,meteohub,2013-02-09 21:27:00,
2013-02-09 15:32:00,52.0,40.3,29.81,South,190,9.0,16.0,65,0.00,,,0.00,meteohub,2013-02-09 21:32:00,
2013-02-09 15:37:00,52.0,40.6,29.82,SE,140,5.0,17.0,66,0.00,,,0.00,meteohub,2013-02-09 21:37:00,
2013-02-09 15:42:00,52.0,40.8,29.81,SE,132,9.0,17.0,65,0.00,,,0.00,meteohub,2013-02-09 21:42:00,
2013-02-09 15:52:00,52.0,40.8,29.81,SE,128,6.0,18.0,65,0.00,,,0.00,meteohub,2013-02-09 21:52:00,
2013-02-09 15:57:00,52.0,40.6,29.81,SE,139,13.0,18.0,66,0.00,,,0.00,meteohub,2013-02-09 21:57:00,
2013-02-09 16:02:00,52.0,40.5,29.81,SSE,163,8.0,22.0,66,0.00,,,0.00,meteohub,2013-02-09 22:02:00,
2013-02-09 16:07:00,51.1,40.6,29.81,SSE,165,3.0,22.0,67,0.00,,,0.00,meteohub,2013-02-09 22:07:00,
2013-02-09 16:12:00,51.1,40.5,29.81,SSE,154,15.0,22.0,67,0.00,,,0.00,meteohub,2013-02-09 22:12:00,
2013-02-09 16:22:00,52.0,41.2,29.80,SE,138,7.0,18.0,68,0.00,,,0.00,meteohub,2013-02-09 22:22:00,
2013-02-09 16:27:00,52.0,41.2,29.80,SE,124,9.0,18.0,66,0.00,,,0.00,meteohub,2013-02-09 22:27:00,
2013-02-09 16:32:00,51.1,40.5,29.80,ESE,119,10.0,18.0,67,0.00,,,0.00,meteohub,2013-02-09 22:32:00,
2013-02-09 16:37:00,51.1,40.5,29.80,SSE,167,7.0,18.0,68,0.00,,,0.00,meteohub,2013-02-09 22:37:00,
2013-02-09 16:42:00,50.0,40.1,29.79,SE,132,6.0,16.0,68,0.00,,,0.00,meteohub,2013-02-09 22:42:00,
2013-02-09 16:47:00,50.0,40.5,29.79,SE,140,4.0,15.0,68,0.00,,,0.00,meteohub,2013-02-09 22:47:00,
2013-02-09 16:52:00,50.0,40.3,29.79,SSE,148,7.0,14.0,69,0.00,,,0.00,meteohub,2013-02-09 22:52:00,
2013-02-09 16:57:00,50.0,40.1,29.79,ESE,114,9.0,14.0,69,0.00,,,0.00,meteohub,2013-02-09 22:57:00,
2013-02-09 17:02:00,50.0,40.5,29.79,SSE,153,3.0,14.0,70,0.00,,,0.00,meteohub,2013-02-09 23:02:00,
2013-02-09 17:07:00,50.0,40.5,29.78,ESE,116,7.0,15.0,70,0.00,,,0.00,meteohub,2013-02-09 23:07:00,
2013-02-09 17:17:00,50.0,40.5,29.78,SSE,154,7.0,16.0,71,0.00,,,0.00,meteohub,2013-02-09 23:17:00,
2013-02-09 17:22:00,50.0,40.5,29.78,SE,135,11.0,16.0,71,0.00,,,0.00,meteohub,2013-02-09 23:22:00,
2013-02-09 17:27:00,50.0,40.5,29.78,SSE,157,12.0,16.0,71,0.00,,,0.00,meteohub,2013-02-09 23:27:00,
2013-02-09 17:32:00,50.0,40.3,29.78,SE,144,9.0,19.0,71,0.00,,,0.00,meteohub,2013-02-09 23:32:00,
2013-02-09 17:42:00,48.9,40.3,29.78,SE,138,8.0,19.0,72,0.00,,,0.00,meteohub,2013-02-09 23:42:00,
2013-02-09 17:47:00,48.9,40.3,29.78,ESE,113,9.0,14.0,72,0.00,,,0.00,meteohub,2013-02-09 23:47:00,
2013-02-09 17:52:00,48.9,40.3,29.78,SSE,166,9.0,18.0,72,0.00,,,0.00,meteohub,2013-02-09 23:52:00,
2013-02-09 17:57:00,48.9,40.3,29.78,South,175,8.0,18.0,72,0.00,,,0.00,meteohub,2013-02-09 23:57:00,
2013-02-09 18:02:00,48.9,40.3,29.78,SSE,150,6.0,18.0,72,0.00,,,0.00,meteohub,2013-02-10 00:02:00,
2013-02-09 18:07:00,48.9,40.1,29.77,SE,133,12.0,17.0,72,0.00,,,0.00,meteohub,2013-02-10 00:07:00,
2013-02-09 18:12:00,48.0,39.9,29.77,SE,126,5.0,18.0,73,0.00,,,0.00,meteohub,2013-02-10 00:12:00,
2013-02-09 18:22:00,48.0,39.9,29.76,SE,138,10.0,18.0,74,0.00,,,0.00,meteohub,2013-02-10 00:22:00,
2013-02-09 18:27:00,48.0,39.7,29.76,SSE,152,5.0,15.0,74,0.00,,,0.00,meteohub,2013-02-10 00:27:00,
2013-02-09 18:32:00,46.9,39.7,29.76,SE,143,5.0,14.0,75,0.00,,,0.00,meteohub,2013-02-10 00:32:00,
2013-02-09 18:37:00,46.9,39.9,29.76,SSE,152,7.0,15.0,75,0.00,,,0.00,meteohub,2013-02-10 00:37:00,
2013-02-09 18:42:00,46.9,39.4,29.76,SSE,159,4.0,18.0,74,0.00,,,0.00,meteohub,2013-02-10 00:42:00,
2013-02-09 18:47:00,46.9,39.4,29.76,SSE,150,11.0,18.0,74,0.00,,,0.00,meteohub,2013-02-10 00:47:00,
2013-02-09 18:52:00,46.9,39.0,29.77,ESE,116,3.0,17.0,74,0.00,,,0.00,meteohub,2013-02-10 00:52:00,
2013-02-09 18:57:00,46.0,38.5,29.77,ESE,121,8.0,17.0,75,0.00,,,0.00,meteohub,2013-02-10 00:57:00,
2013-02-09 19:02:00,46.0,38.3,29.77,ESE,120,10.0,16.0,76,0.00,,,0.00,meteohub,2013-02-10 01:02:00,
2013-02-09 19:07:00,45.0,38.1,29.77,SE,129,6.0,16.0,76,0.00,,,0.00,meteohub,2013-02-10 01:07:00,
2013-02-09 19:12:00,45.0,38.1,29.76,SSE,157,5.0,16.0,76,0.00,,,0.00,meteohub,2013-02-10 01:12:00,
2013-02-09 19:17:00,45.0,38.1,29.76,SE,125,7.0,16.0,76,0.00,,,0.00,meteohub,2013-02-10 01:17:00,
2013-02-09 19:22:00,45.0,38.1,29.76,SE,142,7.0,16.0,76,0.00,,,0.00,meteohub,2013-02-10 01:22:00,
2013-02-09 19:27:00,45.0,38.1,29.76,SE,133,10.0,15.0,76,0.00,,,0.00,meteohub,2013-02-10 01:27:00,
2013-02-09 19:32:00,45.0,38.1,29.76,SE,136,5.0,15.0,76,0.00,,,0.00,meteohub,2013-02-10 01:32:00,
2013-02-09 19:37:00,45.0,37.9,29.76,SE,132,4.0,13.0,76,0.00,,,0.00,meteohub,2013-02-10 01:37:00,
2013-02-09 19:42:00,45.0,37.9,29.76,SE,135,8.0,13.0,76,0.00,,,0.00,meteohub,2013-02-10 01:42:00,
2013-02-09 19:52:00,45.0,37.9,29.75,ESE,117,7.0,13.0,76,0.00,,,0.00,meteohub,2013-02-10 01:52:00,
2013-02-09 20:02:00,45.0,37.8,29.75,SE,142,9.0,15.0,75,0.00,,,0.00,meteohub,2013-02-10 02:02:00,
2013-02-09 20:07:00,45.0,37.6,29.75,SSE,148,8.0,15.0,76,0.00,,,0.00,meteohub,2013-02-10 02:07:00,
2013-02-09 20:12:00,45.0,37.6,29.75,SE,127,7.0,17.0,75,0.00,,,0.00,meteohub,2013-02-10 02:12:00,
2013-02-09 20:17:00,45.0,37.6,29.75,SE,142,4.0,17.0,75,0.00,,,0.00,meteohub,2013-02-10 02:17:00,
2013-02-09 20:22:00,45.0,37.4,29.75,SSE,162,9.0,16.0,74,0.00,,,0.00,meteohub,2013-02-10 02:22:00,
2013-02-09 20:27:00,45.0,36.9,29.75,SSE,155,3.0,16.0,74,0.00,,,0.00,meteohub,2013-02-10 02:27:00,
2013-02-09 20:32:00,45.0,37.0,29.75,SE,132,6.0,16.0,74,0.00,,,0.00,meteohub,2013-02-10 02:32:00,
2013-02-09 20:37:00,45.0,37.0,29.75,SSE,164,3.0,16.0,74,0.00,,,0.00,meteohub,2013-02-10 02:37:00,
2013-02-09 20:47:00,44.1,36.3,29.74,SSE,153,10.0,14.0,73,0.00,,,0.00,meteohub,2013-02-10 02:47:00,
2013-02-09 20:52:00,44.1,36.1,29.74,SE,146,11.0,14.0,73,0.00,,,0.00,meteohub,2013-02-10 02:52:00,
2013-02-09 20:57:00,44.1,36.1,29.73,SSE,157,4.0,14.0,73,0.00,,,0.00,meteohub,2013-02-10 02:57:00,
2013-02-09 21:02:00,44.1,36.1,29.72,SE,133,10.0,15.0,73,0.00,,,0.00,meteohub,2013-02-10 03:02:00,
2013-02-09 21:07:00,44.1,36.0,29.72,SE,133,8.0,16.0,73,0.00,,,0.00,meteohub,2013-02-10 03:07:00,
2013-02-09 21:12:00,44.1,36.0,29.72,SE,136,4.0,16.0,74,0.00,,,0.00,meteohub,2013-02-10 03:12:00,
2013-02-09 21:22:00,44.1,36.1,29.71,SE,138,11.0,21.0,74,0.00,,,0.00,meteohub,2013-02-10 03:22:00,
2013-02-09 21:27:00,44.1,36.3,29.71,SSE,165,7.0,21.0,75,0.00,,,0.00,meteohub,2013-02-10 03:27:00,
2013-02-09 21:32:00,44.1,36.3,29.71,SSE,161,10.0,21.0,75,0.00,,,0.00,meteohub,2013-02-10 03:32:00,
2013-02-09 21:37:00,43.0,36.1,29.71,South,189,13.0,18.0,75,0.00,,,0.00,meteohub,2013-02-10 03:37:00,
2013-02-09 21:42:00,43.0,36.5,29.71,SE,144,8.0,18.0,76,0.00,,,0.00,meteohub,2013-02-10 03:42:00,
2013-02-09 21:52:00,43.0,36.7,29.70,SE,126,12.0,16.0,76,0.00,,,0.00,meteohub,2013-02-10 03:52:00,
2013-02-09 21:57:00,43.0,36.5,29.70,SE,127,8.0,19.0,77,0.00,,,0.00,meteohub,2013-02-10 03:57:00,
2013-02-09 22:02:00,43.0,36.5,29.70,South,180,7.0,19.0,77,0.00,,,0.00,meteohub,2013-02-10 04:02:00,
2013-02-09 22:12:00,43.0,36.3,29.70,SE,130,5.0,17.0,77,0.00,,,0.00,meteohub,2013-02-10 04:12:00,
2013-02-09 22:17:00,43.0,36.7,29.70,SE,130,6.0,17.0,78,0.00,,,0.00,meteohub,2013-02-10 04:17:00,
2013-02-09 22:22:00,43.0,36.7,29.69,SE,138,6.0,18.0,78,0.00,,,0.00,meteohub,2013-02-10 04:22:00,
2013-02-09 22:27:00,43.0,36.5,29.69,SE,134,8.0,18.0,78,0.00,,,0.00,meteohub,2013-02-10 04:27:00,
2013-02-09 22:32:00,43.0,36.5,29.69,ESE,110,5.0,15.0,79,0.00,,,0.00,meteohub,2013-02-10 04:32:00,
2013-02-09 22:37:00,43.0,36.5,29.69,SE,126,5.0,15.0,79,0.00,,,0.00,meteohub,2013-02-10 04:37:00,
2013-02-09 22:42:00,42.1,36.5,29.69,South,173,4.0,14.0,79,0.00,,,0.00,meteohub,2013-02-10 04:42:00,
2013-02-09 22:47:00,42.1,36.9,29.70,SSE,161,5.0,14.0,80,0.00,,,0.00,meteohub,2013-02-10 04:47:00,
2013-02-09 22:52:00,42.1,36.9,29.72,South,175,8.0,14.0,80,0.00,,,0.00,meteohub,2013-02-10 04:52:00,
2013-02-09 22:57:00,42.1,37.4,29.73,South,173,11.0,14.0,81,0.00,,,0.00,meteohub,2013-02-10 04:57:00,
2013-02-09 23:02:00,42.1,37.2,29.73,South,183,10.0,14.0,82,0.00,,,0.00,meteohub,2013-02-10 05:02:00,
2013-02-09 23:07:00,42.1,37.4,29.73,South,184,11.0,17.0,83,0.00,,,0.00,meteohub,2013-02-10 05:07:00,
2013-02-09 23:12:00,42.1,37.2,29.73,SSW,200,8.0,17.0,83,0.00,,,0.00,meteohub,2013-02-10 05:12:00,
2013-02-09 23:17:00,42.1,37.4,29.72,South,190,6.0,17.0,84,0.00,,,0.00,meteohub,2013-02-10 05:17:00,
2013-02-09 23:22:00,42.1,37.2,29.72,South,169,6.0,12.0,84,0.00,,,0.00,meteohub,2013-02-10 05:22:00,
2013-02-09 23:27:00,42.1,37.4,29.71,South,175,5.0,12.0,85,0.00,,,0.00,meteohub,2013-02-10 05:27:00,
2013-02-09 23:32:00,41.0,37.4,29.69,SSE,163,3.0,11.0,85,0.00,,,0.00,meteohub,2013-02-10 05:32:00,
2013-02-09 23:37:00,41.0,37.6,29.68,SSE,157,2.0,12.0,86,0.00,,,0.00,meteohub,2013-02-10 05:37:00,
2013-02-09 23:42:00,41.0,37.8,29.68,SSE,165,5.0,14.0,86,0.00,,,0.00,meteohub,2013-02-10 05:42:00,
2013-02-09 23:47:00,41.0,37.8,29.67,SSE,157,8.0,15.0,87,0.00,,,0.00,meteohub,2013-02-10 05:47:00,
2013-02-09 23:52:00,41.0,37.9,29.66,SSE,163,10.0,15.0,87,0.00,,,0.00,meteohub,2013-02-10 05:52:00,
2013-02-09 23:57:00,41.0,37.9,29.65,SSE,155,6.0,18.0,88,0.00,,,0.00,meteohub,2013-02-10 05:57:00,